Погода в Полдневой

Россия / Свердловская область     56°17′51″N   60°17′04″E
В апреле 2022 года жителям России запретили посещать сайт meteo.paraplan.net по решению Генеральной прокуратуры. Аудитория сайта уменьшилась в 10 раз. Владельцы сайта не видят смысла в поддержке погодного сервера в таких условиях. Сайт будет закрыт в октябре.
темп.,
°C
ветер,
м/с
пор.,
м/с
влажн.,
%
обл.,
%
осадки,
мм/ч
давл.,
гПа
погр.,
м
3 октября, пн
пн323:00+3ю279389 0.0 1025114
02:00+5ююз278792 0.0 1024134
05:00+4ююз258995 0.0 102585
08:00+6ююз3117999 0.0 1025243
11:00+9ююз41268100 0.0 1025427
14:00+12юз41159100 0.0 1025685
17:00+10юз31166100 0.0 1026437
20:00+8юз2274100 0.1 102750
4 октября, вт
вт423:00+8юз3117299 0.1 1028307
02:00+8зюз3127064 0.0 1028332
05:00+7зюз3127281 0.0 1030307
08:00+6зюз3117395 0.0 1031241
11:00+11зюз375599 0.0 1031325
14:00+14юз34495 0.0 1031561
17:00+13ю12665 0.0 103155
20:00+8ю11875 0.0 103210
5 октября, ср
ср523:00+7юз11865 0.0 103210
02:00+7зюз118999 0.0 103210
05:00+6зюз2285100 0.0 103216
08:00+6зюз2278100 0.0 103245
11:00+10юз3655100 0.0 1031323
14:00+12юз3540100 0.0 1030747
17:00+10ююз2350100 0.0 102992
20:00+9юз2348100 0.0 103061
6 октября, чт
чт623:00+8ююз2250100 0.0 102848
02:00+8юв1151100 0.0 102611
05:00+6юв2262100 0.0 102521
08:00+5ююв2367100 0.0 102373
11:00+10ююв254697 0.0 1020182
14:00+10ююв2750100 0.0 1019370
17:00+10ю376875 0.0 1018434
20:00+6ю2682100 0.0 1018126
7 октября, пт
пт723:00+7ююз267895 0.0 1016142
02:00+7ююз2980100 0.1 1014305
05:00+5юз3108679 0.1 1013322
08:00+6юз398299 0.0 1012572
11:00+6зюз488192 0.5 1011809
14:00+8з586959 0.1 10111165
17:00+7з597325 0.3 10111129
20:00+5зюз41186100 0.1 10111045